Regional Weather Roundup
Issued by NWS

Home | Current Version | Previous Version | Graphics & Text | Print | Product List | Glossary On
Versions: 1 2 3 4 5 6 7 8 9 10 11 12 13 14 15 16 17 18 19 20 21 22 23 24 25 26 27 28 29 30 31 32 33 34 35 36 37 38 39 40 41 42 43 44 45 46 47 48 49 50
000
ASUS43 KTOP 240559
RWRKS

WEATHER ROUNDUP FOR KANSAS
NATIONAL WEATHER SERVICE GOODLAND KS
100 AM CDT THU APR 24 2014

NOTE:  "FAIR" INDICATES FEW OR NO CLOUDS BELOW 12,000 FEET WITH NO
SIGNIFICANT WEATHER AND/OR OBSTRUCTIONS TO VISIBILITY.

KSZ001>006-013>018-027>032-041>047-240700-
NORTHWEST KANSAS

CITY           SKY/WX    TMP DP  RH WIND       PRES   REMARKS
GOODLAND       CLOUDY    52  30  43 N31G39    29.83R
6HR MIN TEMP:  51; 6HR MAX TEMP:  73;

HAYS           CLOUDY    57  54  88 NW18      29.67R THUNDER
HILL CITY      LGT RAIN  56  52  86 N10       29.73R
6HR MIN TEMP:  52; 6HR MAX TEMP:  79; 6HR PCP:  1.28;

RUSSELL        CLOUDY    66  51  58 W22G44    29.63R
6HR MIN TEMP:  66; 6HR MAX TEMP:  82;

$$

KSZ061>065-074>080-084>089-240700-
SOUTHWEST KANSAS

CITY           SKY/WX    TMP DP  RH WIND       PRES   REMARKS
DODGE CITY     FAIR      63  54  72 S18       29.62R
6HR MIN TEMP:  63; 6HR MAX TEMP:  78;

ELKHART          N/A     58  29  33 N30         N/A
GARDEN CITY    CLOUDY    57  34  41 N36G46    29.71R THUNDER HAZE
6HR MIN TEMP:  57; 6HR MAX TEMP:  78;

GREAT BEND     FAIR      64  48  55 S26G32    29.54R
LIBERAL        FAIR      64  52  63 S13       29.63R
$$

KSZ066>073-081>083-090>101-240700-
SOUTHEAST KANSAS

CITY           SKY/WX    TMP DP  RH WIND       PRES   REMARKS
CHANUTE        FAIR      71  54  54 S29G37    29.68F
6HR MIN TEMP:  71; 6HR MAX TEMP:  77;

COFFEYVILLE    FAIR      72  56  57 S17       29.73S
6HR MIN TEMP:  71; 6HR MAX TEMP:  80;

HUTCHINSON     FAIR      69  51  52 S26G38    29.57F
6HR MIN TEMP:  68; 6HR MAX TEMP:  82; 6HR PCP: TRACE;

MEDICINE LODGE   N/A     65  57  75 S15G23    29.60R
NEWTON         FAIR      66  48  52 S18       29.60F
PARSONS        FAIR      71  55  56 S16G24    29.71F
6HR MIN TEMP:  71; 6HR MAX TEMP:  79;

WICHITA INTL   MOCLDY    69  55  60 S26G37    29.60R
6HR MIN TEMP:  69; 6HR MAX TEMP:  81;

WICHITA JABRA  FAIR      70  53  54 S28G38    29.59R
6HR MIN TEMP:  70; 6HR MAX TEMP:  80;

WINFIELD       FAIR      67  57  70 S22G36    29.64R
6HR MIN TEMP:  66; 6HR MAX TEMP:  81; 6HR PCP:  0.02;

$$

KSZ007>012-019>026-033>040-048>060-102>105-240700-
NORTHEAST KANSAS

CITY           SKY/WX    TMP DP  RH WIND       PRES   REMARKS
CONCORDIA      CLOUDY    61  49  64 N14G21    29.60R THUNDER
6HR MIN TEMP:  61; 6HR MAX TEMP:  80;

EMPORIA        FAIR      73  56  54 S25G35    29.59F
6HR MIN TEMP:  72; 6HR MAX TEMP:  77;

LAWRENCE       FAIR      68  47  46 SE16      29.65F
6HR MIN TEMP:  67; 6HR MAX TEMP:  77;

MANHATTAN      FAIR      73  54  51 S21G33    29.49R
6HR MIN TEMP:  73; 6HR MAX TEMP:  82;

OLATHE IND     FAIR      67  45  45 SE20      29.69S
6HR MIN TEMP:  67; 6HR MAX TEMP:  74;

OLATHE EXE     FAIR      66  44  45 S17       29.69R
6HR MIN TEMP:  66; 6HR MAX TEMP:  72;

SALINA         FAIR      71  52  50 S15G25    29.53R
6HR MIN TEMP:  71; 6HR MAX TEMP:  83;

TOPEKA BILLARD FAIR      73  51  46 SE24G32   29.58F
6HR MIN TEMP:  73; 6HR MAX TEMP:  80;

TOPEKA FORBES  FAIR      71  51  49 SE23G33   29.58F
6HR MIN TEMP:  71; 6HR MAX TEMP:  78;

$$



USA.gov is the U.S. government's official web portal to all federal, state and local government web resources and services.